Weather History for Steamboat Springs, CO

Change the Weather History Date:

Sunday, April 28, 2013

  Actual Average Record
Temperature  
Mean Temperature 50 °F -  
Max Temperature 68 °F 58 °F 77 °F (1992)
Min Temperature 31 °F 27 °F 8 °F (1984)
Degree Days  
Heating Degree Days 16    
Moisture  
Dew Point 21 °F    
Average Humidity 37    
Maximum Humidity 69    
Minimum Humidity 11    
Precipitation  
Precipitation 0.00 in - - ()
Sea Level Pressure  
Sea Level Pressure 30.11 in    
Wind  
Wind Speed 4 mph (WSW)    
Max Wind Speed 21 mph    
Max Gust Speed 48 mph    
Visibility 10 miles    
Events      
Averages and records for this station are not official NWS values.
T = Trace of Precipitation, MM = Missing Value Source: NWS Daily Summary

Daily Weather History Graph

Daily Weather History Graph

Search for Another Location

Airport:

Trip Planner

Search our weather history database for the weather conditions in past years. The results will help you decide how hot, cold, wet, or windy it might be!

Date:

Astronomy

Apr. 28, 2013 Rise Set
Actual Time 6:09 AM MDT 8:00 PM MDT
Civil Twilight 5:40 AM MDT 8:29 PM MDT
Nautical Twilight 5:05 AM MDT 9:05 PM MDT
Astronomical Twilight 4:26 AM MDT 9:44 PM MDT
Moon 11:34 PM MDT 8:29 AM MDT
Length of Visible Light 14h 49m
Length of Day
13h 50m
Waning Gibbous, 88% of the Moon is Illuminated
Apr 28
Waning Gibbous
May 2
Last Quarter
May 9
New
May 17
First Quarter
May 24
Full

Hourly Weather History & Observations

Time (MDT) Temp. Windchill Dew Point Humidity Pressure Visibility Wind Dir Wind Speed Gust Speed Precip Events Conditions
12:15 AM 41.9 °F - 19.2 °F 40% 30.20 in 10.0 mi Calm Calm - N/A   Clear
12:35 AM 41.4 °F - 20.3 °F 43% 30.20 in 10.0 mi Calm Calm - N/A   Clear
12:55 AM 40.8 °F - 20.3 °F 44% 30.20 in 10.0 mi Calm Calm - N/A   Clear
1:15 AM 40.1 °F - 20.7 °F 46% 30.20 in 10.0 mi Calm Calm - N/A   Clear
1:35 AM 37.8 °F - 21.2 °F 51% 30.20 in 10.0 mi Calm Calm - N/A   Clear
1:55 AM 37.8 °F - 21.2 °F 51% 30.20 in 10.0 mi Calm Calm - N/A   Clear
2:15 AM 36.3 °F - 22.3 °F 57% 30.19 in 10.0 mi Calm Calm - N/A   Clear
2:35 AM 35.1 °F 32.2 °F 22.5 °F 60% 30.19 in 10.0 mi SE 3.5 mph - N/A   Clear
2:55 AM 34.5 °F - 23.2 °F 63% 30.19 in 10.0 mi Calm Calm - N/A   Clear
3:15 AM 35.6 °F - 22.3 °F 58% 30.19 in 10.0 mi Calm Calm - N/A   Clear
3:35 AM 34.7 °F - 21.7 °F 59% 30.18 in 10.0 mi Calm Calm - N/A   Clear
3:55 AM 34.0 °F - 22.1 °F 62% 30.19 in 10.0 mi Calm Calm - N/A   Clear
4:15 AM 33.6 °F - 21.7 °F 62% 30.18 in 10.0 mi Calm Calm - N/A   Clear
4:35 AM 32.4 °F - 21.9 °F 65% 30.18 in 10.0 mi Calm Calm - N/A   Clear
4:55 AM 32.4 °F - 21.9 °F 65% 30.19 in 10.0 mi Calm Calm - N/A   Clear
5:15 AM 33.3 °F - 21.2 °F 61% 30.18 in 10.0 mi Calm Calm - N/A   Clear
5:35 AM 31.3 °F - 22.3 °F 69% 30.18 in 10.0 mi Calm Calm - N/A   Clear
5:55 AM 31.5 °F - 22.1 °F 68% 30.18 in 10.0 mi Calm Calm - N/A   Clear
6:15 AM 31.8 °F - 21.7 °F 66% 30.18 in 10.0 mi Calm Calm - N/A   Clear
6:35 AM 31.6 °F - 21.6 °F 66% 30.19 in 10.0 mi Calm Calm - N/A   Clear
7:15 AM 32.7 °F - 21.9 °F 64% 30.19 in 10.0 mi Calm Calm - N/A   Clear
7:35 AM 34.3 °F - 22.8 °F 63% 30.19 in 10.0 mi Calm Calm - N/A   Clear
7:55 AM 37.0 °F - 24.6 °F 61% 30.19 in 10.0 mi Calm Calm - N/A   Clear
8:15 AM 38.3 °F - 22.8 °F 54% 30.19 in 10.0 mi Calm Calm - N/A   Clear
8:35 AM 40.8 °F - 23.2 °F 50% 30.18 in 10.0 mi Calm Calm - N/A   Clear
8:55 AM 43.2 °F - 23.0 °F 45% 30.17 in 10.0 mi Calm Calm - N/A   Clear
9:15 AM 46.2 °F - 23.5 °F 41% 30.16 in 10.0 mi Calm Calm - N/A   Clear
9:35 AM 47.7 °F - 22.3 °F 37% 30.16 in 10.0 mi Calm Calm - N/A   Clear
9:55 AM 50.5 °F - 21.2 °F 32% 30.16 in 10.0 mi Calm Calm - N/A   Clear
10:15 AM 53.2 °F - 21.6 °F 29% 30.15 in 10.0 mi Calm Calm - N/A   Clear
10:35 AM 56.8 °F - 20.3 °F 24% 30.15 in 10.0 mi Calm Calm - N/A   Clear
10:55 AM 59.0 °F - 15.4 °F 18% 30.14 in 10.0 mi WSW 4.6 mph - N/A   Clear
11:15 AM 60.1 °F - 17.2 °F 19% 30.14 in 10.0 mi SW 5.8 mph - N/A   Clear
11:35 AM 61.3 °F - 17.1 °F 18% 30.12 in 10.0 mi SW 8.1 mph - N/A   Clear
11:55 AM 62.2 °F - 14.9 °F 16% 30.12 in 10.0 mi Calm Calm - N/A   Clear
12:15 PM 63.0 °F - 15.3 °F 16% 30.11 in 10.0 mi SSW 11.5 mph - N/A   Clear
12:35 PM 63.9 °F - 15.8 °F 16% 30.10 in 10.0 mi SW 11.5 mph 19.6 mph N/A   Scattered Clouds
12:55 PM 64.6 °F - 15.1 °F 15% 30.09 in 10.0 mi WSW 9.2 mph 20.7 mph N/A   Scattered Clouds
1:15 PM 65.5 °F - 13.5 °F 13% 30.08 in 10.0 mi SSW 11.5 mph 17.3 mph N/A   Scattered Clouds
1:35 PM 66.0 °F - 12.9 °F 13% 30.08 in 10.0 mi WSW 15.0 mph 21.9 mph N/A   Clear
1:55 PM 65.5 °F - 13.3 °F 13% 30.07 in 10.0 mi SW 12.7 mph 20.7 mph N/A   Clear
2:15 PM 67.1 °F - 15.3 °F 14% 30.07 in 10.0 mi WSW 10.4 mph 20.7 mph N/A   Scattered Clouds
2:35 PM 65.7 °F - 13.1 °F 13% 30.06 in 10.0 mi West 4.6 mph 16.1 mph N/A   Mostly Cloudy
2:55 PM 67.5 °F - 13.3 °F 12% 30.05 in 10.0 mi West 10.4 mph 27.6 mph N/A   Mostly Cloudy
3:15 PM 66.9 °F - 12.6 °F 12% 30.04 in 10.0 mi West 15.0 mph 28.8 mph N/A   Mostly Cloudy
3:35 PM 66.2 °F - 10.8 °F 12% 30.02 in 10.0 mi West 16.1 mph 19.6 mph N/A   Mostly Cloudy
3:55 PM 66.4 °F - 12.0 °F 12% 30.02 in 10.0 mi SW 13.8 mph 21.9 mph N/A   Mostly Cloudy
4:15 PM 68.5 °F - 10.6 °F 11% 30.01 in 10.0 mi WSW 19.6 mph 28.8 mph N/A   Mostly Cloudy
4:35 PM 67.6 °F - 11.7 °F 11% 30.00 in 10.0 mi WSW 18.4 mph 27.6 mph N/A   Mostly Cloudy
4:55 PM 67.8 °F - 10.8 °F 11% 30.00 in 10.0 mi SW 18.4 mph 27.6 mph N/A   Mostly Cloudy
5:15 PM 66.7 °F - 12.4 °F 12% 29.99 in 10.0 mi WSW 16.1 mph 25.3 mph N/A   Mostly Cloudy
5:35 PM 66.0 °F - 13.6 °F 13% 29.99 in 10.0 mi West 20.7 mph - N/A   Mostly Cloudy
5:55 PM 64.8 °F - 12.7 °F 13% 29.99 in 10.0 mi West 12.7 mph 20.7 mph N/A   Scattered Clouds
6:15 PM 63.9 °F - 14.7 °F 15% 29.98 in 10.0 mi WNW 19.6 mph 29.9 mph N/A   Overcast
6:35 PM 61.0 °F - 20.1 °F 21% 29.99 in 10.0 mi WNW 18.4 mph 32.2 mph N/A   Overcast
6:55 PM 59.9 °F - 21.6 °F 23% 29.99 in 10.0 mi NW 15.0 mph 20.7 mph N/A   Overcast
7:15 PM 58.8 °F - 22.6 °F 25% 29.99 in 10.0 mi NNW 8.1 mph - N/A   Scattered Clouds
7:35 PM 59.0 °F - 22.5 °F 24% 30.00 in 10.0 mi Calm Calm - N/A   Mostly Cloudy
7:55 PM 57.9 °F - 22.6 °F 26% 30.01 in 10.0 mi WSW 6.9 mph - N/A   Overcast
8:15 PM 57.6 °F - 23.4 °F 27% 30.03 in 10.0 mi WNW 15.0 mph 48.3 mph N/A   Overcast
8:35 PM 55.9 °F - 25.7 °F 31% 30.03 in 10.0 mi NNW 8.1 mph - N/A   Overcast
8:55 PM 55.8 °F - 24.8 °F 30% 30.03 in 10.0 mi North 4.6 mph - N/A   Mostly Cloudy
9:15 PM 55.6 °F - 24.8 °F 30% 30.05 in 10.0 mi Calm Calm - N/A   Overcast
9:35 PM 52.2 °F - 32.2 °F 47% 30.07 in 7.0 mi NW 8.1 mph 42.6 mph N/A   Overcast
9:55 PM 52.7 °F - 31.1 °F 44% 30.07 in 10.0 mi SE 4.6 mph - N/A   Overcast
10:15 PM 51.3 °F - 32.9 °F 50% 30.08 in 10.0 mi North 5.8 mph - N/A   Overcast
10:35 PM 50.0 °F - 35.1 °F 57% 30.08 in 10.0 mi SSE 8.1 mph - N/A   Overcast
10:55 PM 49.1 °F - 34.7 °F 58% 30.05 in 10.0 mi ENE 11.5 mph - N/A   Overcast
11:15 PM 49.3 °F - 34.7 °F 57% 30.06 in 10.0 mi East 6.9 mph - N/A   Overcast
11:35 PM 49.8 °F - 32.7 °F 52% 30.06 in 10.0 mi Calm Calm - N/A   Overcast
11:55 PM 48.4 °F - 32.9 °F 55% 30.05 in 10.0 mi East 8.1 mph - N/A   Mostly Cloudy